Time,TemperatureF,DewpointF,PressureIn,WindDirection,WindDirectionDegrees,WindSpeedMPH,WindSpeedGustMPH,Humidity,HourlyPrecipIn,Conditions,Clouds,dailyrainin,SoftwareType,DateUTC
2013-03-14 00:04:00,23.7,19.6,30.08,SE,141,10.0,12.0,84,0.03,,,0.00,VWS V14.00,2013-03-14 05:04:00,
2013-03-14 00:09:00,23.7,19.6,30.08,SE,140,8.0,12.0,84,0.03,,,0.00,VWS V14.00,2013-03-14 05:09:00,
2013-03-14 00:14:00,23.8,19.7,30.08,SE,136,4.0,14.0,84,0.03,,,0.00,VWS V14.00,2013-03-14 05:14:00,
2013-03-14 00:19:00,23.9,19.8,30.09,SE,136,7.0,14.0,84,0.03,,,0.00,VWS V14.00,2013-03-14 05:19:00,
2013-03-14 00:24:00,24.2,20.1,30.09,SE,142,11.0,11.0,84,0.03,,,0.00,VWS V14.00,2013-03-14 05:24:00,
2013-03-14 00:29:00,24.4,20.3,30.09,SE,136,6.0,12.0,84,0.03,,,0.00,VWS V14.00,2013-03-14 05:29:00,
2013-03-14 00:34:00,24.7,20.6,30.08,SE,140,6.0,12.0,84,0.03,,,0.00,VWS V14.00,2013-03-14 05:34:00,
2013-03-14 00:39:00,24.8,20.7,30.07,SE,132,7.0,14.0,84,0.03,,,0.00,VWS V14.00,2013-03-14 05:39:00,
2013-03-14 00:44:00,25.0,20.9,30.07,SE,139,7.0,12.0,84,0.03,,,0.00,VWS V14.00,2013-03-14 05:44:00,
2013-03-14 00:49:00,25.2,20.8,30.08,SE,144,2.0,12.0,83,0.03,,,0.00,VWS V14.00,2013-03-14 05:49:00,
2013-03-14 00:54:00,25.4,21.2,30.08,SE,140,9.0,10.0,84,0.00,,,0.00,VWS V14.00,2013-03-14 05:54:00,
2013-03-14 00:59:00,25.7,21.3,30.08,SE,136,8.0,12.0,83,0.00,,,0.00,VWS V14.00,2013-03-14 05:59:00,
2013-03-14 01:04:00,25.9,21.7,30.08,SE,139,7.0,11.0,84,0.00,,OVC055,0.00,VWS V14.00,2013-03-14 06:04:00,
2013-03-14 01:10:00,26.1,21.6,30.07,SE,141,7.0,14.0,83,0.00,,OVC055,0.00,VWS V14.00,2013-03-14 06:10:00,
2013-03-14 01:15:00,26.2,21.8,30.07,SE,140,5.0,12.0,83,0.00,,OVC055,0.00,VWS V14.00,2013-03-14 06:15:00,
2013-03-14 01:20:00,26.3,21.9,30.07,SE,141,8.0,15.0,83,0.00,,OVC055,0.00,VWS V14.00,2013-03-14 06:20:00,
2013-03-14 01:25:00,26.4,22.0,30.07,SE,138,6.0,11.0,83,0.00,,OVC055,0.00,VWS V14.00,2013-03-14 06:25:00,
2013-03-14 01:30:00,26.5,22.0,30.06,SE,135,5.0,5.0,83,0.00,,OVC055,0.00,VWS V14.00,2013-03-14 06:30:00,
2013-03-14 01:35:00,26.5,22.0,30.06,SE,136,0.0,10.0,83,0.00,,OVC055,0.00,VWS V14.00,2013-03-14 06:35:00,
2013-03-14 01:40:00,26.6,22.1,30.06,SE,137,2.0,3.0,83,0.00,,OVC055,0.00,VWS V14.00,2013-03-14 06:40:00,
2013-03-14 01:45:00,26.6,22.1,30.05,SE,133,4.0,11.0,83,0.00,,OVC055,0.00,VWS V14.00,2013-03-14 06:45:00,
2013-03-14 01:50:00,26.6,22.1,30.05,SE,136,4.0,5.0,83,0.00,,OVC055,0.00,VWS V14.00,2013-03-14 06:50:00,
2013-03-14 01:55:00,26.6,22.1,30.05,SE,135,8.0,11.0,83,0.00,,OVC055,0.00,VWS V14.00,2013-03-14 06:55:00,
2013-03-14 02:00:00,26.7,22.2,30.05,SE,138,9.0,10.0,83,0.00,,OVC080,0.00,VWS V14.00,2013-03-14 07:00:00,
2013-03-14 02:05:00,26.7,22.2,30.06,SE,137,3.0,12.0,83,0.00,,OVC080,0.00,VWS V14.00,2013-03-14 07:05:00,
2013-03-14 02:10:00,26.8,22.3,30.06,SE,141,5.0,9.0,83,0.00,,OVC080,0.00,VWS V14.00,2013-03-14 07:10:00,
2013-03-14 02:15:00,26.8,22.3,30.06,SE,141,0.0,9.0,83,0.00,,OVC080,0.00,VWS V14.00,2013-03-14 07:15:00,
2013-03-14 02:20:00,26.8,22.3,30.07,SE,138,0.0,0.0,83,0.00,,OVC080,0.00,VWS V14.00,2013-03-14 07:20:00,
2013-03-14 02:25:00,26.7,22.2,30.06,SE,139,0.0,5.0,83,0.00,,OVC080,0.00,VWS V14.00,2013-03-14 07:25:00,
2013-03-14 02:30:00,26.5,22.0,30.06,SE,139,6.0,7.0,83,0.00,,OVC080,0.00,VWS V14.00,2013-03-14 07:30:00,
2013-03-14 02:35:00,26.2,21.8,30.05,SE,138,3.0,10.0,83,0.00,,OVC080,0.00,VWS V14.00,2013-03-14 07:35:00,
2013-03-14 02:40:00,26.1,21.6,30.05,SE,138,8.0,8.0,83,0.00,,OVC080,0.00,VWS V14.00,2013-03-14 07:40:00,
2013-03-14 02:45:00,26.1,21.6,30.05,SE,138,3.0,10.0,83,0.00,,OVC080,0.00,VWS V14.00,2013-03-14 07:45:00,
2013-03-14 02:50:00,26.1,21.6,30.05,SE,142,5.0,10.0,83,0.00,,OVC080,0.00,VWS V14.00,2013-03-14 07:50:00,
2013-03-14 02:55:00,26.2,21.8,30.05,SE,142,4.0,12.0,83,0.00,,OVC080,0.00,VWS V14.00,2013-03-14 07:55:00,
2013-03-14 03:00:00,26.2,21.8,30.05,SE,143,6.0,7.0,83,0.00,,OVC080,0.00,VWS V14.00,2013-03-14 08:00:00,
2013-03-14 03:05:00,26.3,21.9,30.05,SE,142,6.0,12.0,83,0.00,,OVC080,0.00,VWS V14.00,2013-03-14 08:05:00,
2013-03-14 03:10:00,26.3,21.9,30.05,SE,142,3.0,6.0,83,0.00,,SCT090,0.00,VWS V14.00,2013-03-14 08:10:00,
2013-03-14 03:15:00,26.4,22.0,30.05,SE,141,9.0,9.0,83,0.00,,SCT090,0.00,VWS V14.00,2013-03-14 08:15:00,
2013-03-14 03:20:00,26.4,22.0,30.05,SE,142,3.0,10.0,83,0.00,,SCT090,0.00,VWS V14.00,2013-03-14 08:20:00,
2013-03-14 03:25:00,26.4,22.0,30.05,SE,143,4.0,10.0,83,0.00,,SCT090,0.00,VWS V14.00,2013-03-14 08:25:00,
2013-03-14 03:30:00,26.5,21.8,30.04,SE,146,5.0,8.0,82,0.00,,SCT090,0.00,VWS V14.00,2013-03-14 08:30:00,
2013-03-14 03:35:00,26.5,22.0,30.04,SSE,158,7.0,10.0,83,0.00,,SCT090,0.00,VWS V14.00,2013-03-14 08:35:00,
2013-03-14 03:40:00,26.4,21.7,30.03,SE,141,9.0,10.0,82,0.00,,SCT090,0.00,VWS V14.00,2013-03-14 08:40:00,
2013-03-14 03:45:00,26.4,21.7,30.03,SSE,167,10.0,12.0,82,0.00,,SCT090,0.00,VWS V14.00,2013-03-14 08:45:00,
2013-03-14 03:50:00,26.3,21.6,30.03,SSE,164,6.0,7.0,82,0.00,,SCT090,0.00,VWS V14.00,2013-03-14 08:50:00,
2013-03-14 03:55:00,26.3,21.9,30.03,SSE,161,4.0,10.0,83,0.00,,SCT090,0.00,VWS V14.00,2013-03-14 08:55:00,
2013-03-14 04:00:00,26.1,21.4,30.03,SSE,165,5.0,8.0,82,0.00,,SCT090,0.00,VWS V14.00,2013-03-14 09:00:00,
2013-03-14 04:05:00,26.0,21.3,30.03,SSE,153,5.0,10.0,82,0.00,,CLR,0.00,VWS V14.00,2013-03-14 09:05:00,
2013-03-14 04:10:00,25.8,21.1,30.03,SSE,151,2.0,6.0,82,0.00,,CLR,0.00,VWS V14.00,2013-03-14 09:10:00,
2013-03-14 04:15:00,25.7,21.3,30.03,SSE,152,0.0,8.0,83,0.00,,CLR,0.00,VWS V14.00,2013-03-14 09:15:00,
2013-03-14 04:20:00,25.5,21.1,30.03,SSE,153,0.0,3.0,83,0.00,,CLR,0.00,VWS V14.00,2013-03-14 09:20:00,
2013-03-14 04:25:00,25.4,21.0,30.03,SSE,153,0.0,6.0,83,0.00,,CLR,0.00,VWS V14.00,2013-03-14 09:25:00,
2013-03-14 04:30:00,25.3,20.9,30.03,SSE,153,0.0,3.0,83,0.00,,CLR,0.00,VWS V14.00,2013-03-14 09:30:00,
2013-03-14 04:35:00,25.1,20.7,30.03,SSE,153,0.0,6.0,83,0.00,,CLR,0.00,VWS V14.00,2013-03-14 09:35:00,
2013-03-14 04:40:00,24.9,20.5,30.03,SSE,153,0.0,0.0,83,0.00,,CLR,0.00,VWS V14.00,2013-03-14 09:40:00,
2013-03-14 04:45:00,24.6,20.2,30.03,SSE,153,0.0,0.0,83,0.00,,CLR,0.00,VWS V14.00,2013-03-14 09:45:00,
2013-03-14 04:50:00,24.4,20.0,30.03,SSE,153,0.0,0.0,83,0.00,,CLR,0.00,VWS V14.00,2013-03-14 09:50:00,
2013-03-14 04:55:00,24.1,19.7,30.03,SSE,153,0.0,0.0,83,0.00,,CLR,0.00,VWS V14.00,2013-03-14 09:55:00,
2013-03-14 05:00:00,24.0,19.6,30.03,SSE,153,0.0,0.0,83,0.00,,CLR,0.00,VWS V14.00,2013-03-14 10:00:00,
2013-03-14 05:05:00,24.0,19.9,30.03,SSE,153,0.0,0.0,84,0.00,,CLR,0.00,VWS V14.00,2013-03-14 10:05:00,
2013-03-14 05:10:00,23.8,19.4,30.03,SSE,153,0.0,0.0,83,0.00,,CLR,0.00,VWS V14.00,2013-03-14 10:10:00,
2013-03-14 05:15:00,23.6,19.2,30.03,SSE,153,0.0,0.0,83,0.00,,CLR,0.00,VWS V14.00,2013-03-14 10:15:00,
2013-03-14 05:20:00,23.5,19.1,30.04,SSE,153,0.0,0.0,83,0.00,,CLR,0.00,VWS V14.00,2013-03-14 10:20:00,
2013-03-14 05:25:00,23.2,18.8,30.04,SSE,153,0.0,0.0,83,0.00,,CLR,0.00,VWS V14.00,2013-03-14 10:25:00,
2013-03-14 05:31:00,23.0,18.6,30.03,SSE,153,0.0,0.0,83,0.00,,CLR,0.00,VWS V14.00,2013-03-14 10:31:00,
2013-03-14 05:36:00,22.6,18.2,30.03,SSE,153,0.0,0.0,83,0.00,,CLR,0.00,VWS V14.00,2013-03-14 10:36:00,
2013-03-14 05:41:00,22.3,18.2,30.03,SSE,153,0.0,0.0,84,0.00,,CLR,0.00,VWS V14.00,2013-03-14 10:41:00,
2013-03-14 05:46:00,22.1,18.0,30.04,SSE,153,0.0,0.0,84,0.00,,CLR,0.00,VWS V14.00,2013-03-14 10:46:00,
2013-03-14 05:51:00,21.9,17.8,30.03,SSE,153,0.0,0.0,84,0.00,,CLR,0.00,VWS V14.00,2013-03-14 10:51:00,
2013-03-14 05:56:00,21.8,17.7,30.04,SSE,153,0.0,0.0,84,0.00,,CLR,0.00,VWS V14.00,2013-03-14 10:56:00,
2013-03-14 06:01:00,21.7,17.6,30.05,SSE,153,0.0,0.0,84,0.00,,CLR,0.00,VWS V14.00,2013-03-14 11:01:00,
2013-03-14 06:06:00,21.4,17.3,30.05,SSE,153,0.0,0.0,84,0.00,,CLR,0.00,VWS V14.00,2013-03-14 11:06:00,
2013-03-14 06:11:00,21.1,17.0,30.06,SSE,153,0.0,0.0,84,0.00,,CLR,0.00,VWS V14.00,2013-03-14 11:11:00,
2013-03-14 06:16:00,20.8,16.7,30.06,SSE,153,0.0,0.0,84,0.00,,CLR,0.00,VWS V14.00,2013-03-14 11:16:00,
2013-03-14 06:21:00,20.4,16.4,30.06,SSE,153,0.0,0.0,84,0.00,,CLR,0.00,VWS V14.00,2013-03-14 11:21:00,
2013-03-14 06:26:00,20.1,16.0,30.06,SSE,153,0.0,0.0,84,0.00,,CLR,0.00,VWS V14.00,2013-03-14 11:26:00,
2013-03-14 06:31:00,19.7,15.7,30.06,SSE,153,0.0,0.0,84,0.00,,CLR,0.00,VWS V14.00,2013-03-14 11:31:00,
2013-03-14 06:36:00,19.3,15.3,30.06,SSE,153,0.0,0.0,84,0.00,,CLR,0.00,VWS V14.00,2013-03-14 11:36:00,
2013-03-14 06:41:00,18.8,14.8,30.06,SSE,153,0.0,0.0,84,0.00,,CLR,0.00,VWS V14.00,2013-03-14 11:41:00,
2013-03-14 06:46:00,18.4,14.4,30.06,SSE,153,0.0,0.0,84,0.00,,CLR,0.00,VWS V14.00,2013-03-14 11:46:00,
2013-03-14 06:51:00,18.1,13.8,30.06,SSE,153,0.0,0.0,83,0.00,,CLR,0.00,VWS V14.00,2013-03-14 11:51:00,
2013-03-14 06:56:00,17.8,13.8,30.06,SSE,153,0.0,0.0,84,0.00,,CLR,0.00,VWS V14.00,2013-03-14 11:56:00,
2013-03-14 07:01:00,17.6,13.6,30.06,SSE,153,0.0,0.0,84,0.00,,CLR,0.00,VWS V14.00,2013-03-14 12:01:00,
2013-03-14 07:07:00,17.4,13.4,30.07,SSE,153,0.0,0.0,84,0.00,,CLR,0.00,VWS V14.00,2013-03-14 12:07:00,
2013-03-14 07:12:00,17.2,13.2,30.07,SSE,153,0.0,0.0,84,0.00,,CLR,0.00,VWS V14.00,2013-03-14 12:12:00,
2013-03-14 07:17:00,16.9,12.9,30.07,SSE,153,0.0,0.0,84,0.00,,CLR,0.00,VWS V14.00,2013-03-14 12:17:00,
2013-03-14 07:22:00,16.7,12.7,30.07,SSE,153,0.0,0.0,84,0.00,,CLR,0.00,VWS V14.00,2013-03-14 12:22:00,
2013-03-14 07:27:00,17.4,13.9,30.07,SSE,153,0.0,0.0,86,0.00,,CLR,0.00,VWS V14.00,2013-03-14 12:27:00,
2013-03-14 07:32:00,18.3,14.8,30.07,SSE,153,0.0,0.0,86,0.00,,CLR,0.00,VWS V14.00,2013-03-14 12:32:00,
2013-03-14 07:37:00,18.6,15.1,30.07,SSE,153,0.0,0.0,86,0.00,,CLR,0.00,VWS V14.00,2013-03-14 12:37:00,
2013-03-14 07:42:00,19.0,15.5,30.07,SSE,153,0.0,0.0,86,0.00,,CLR,0.00,VWS V14.00,2013-03-14 12:42:00,
2013-03-14 07:47:00,19.1,15.6,30.07,SSE,153,0.0,0.0,86,0.00,,CLR,0.00,VWS V14.00,2013-03-14 12:47:00,
2013-03-14 07:52:00,19.6,16.4,30.07,SSE,153,0.0,0.0,87,0.00,,CLR,0.00,VWS V14.00,2013-03-14 12:52:00,
2013-03-14 07:57:00,20.1,16.9,30.07,SSE,153,0.0,0.0,87,0.00,,CLR,0.00,VWS V14.00,2013-03-14 12:57:00,
2013-03-14 08:02:00,20.5,17.2,30.07,SSE,153,0.0,0.0,87,0.00,,CLR,0.00,VWS V14.00,2013-03-14 13:02:00,
2013-03-14 08:07:00,20.8,17.5,30.07,SSE,153,0.0,0.0,87,0.00,,,0.00,VWS V14.00,2013-03-14 13:07:00,
2013-03-14 08:12:00,21.1,17.8,30.07,SSE,153,0.0,0.0,87,0.00,,,0.00,VWS V14.00,2013-03-14 13:12:00,
2013-03-14 08:17:00,21.2,17.9,30.07,SSE,153,0.0,0.0,87,0.00,,CLR,0.00,VWS V14.00,2013-03-14 13:17:00,
2013-03-14 08:22:00,21.4,18.1,30.08,SSE,153,0.0,0.0,87,0.00,,CLR,0.00,VWS V14.00,2013-03-14 13:22:00,
2013-03-14 08:27:00,21.8,18.5,30.08,SSE,153,0.0,0.0,87,0.00,,CLR,0.00,VWS V14.00,2013-03-14 13:27:00,
2013-03-14 08:32:00,22.1,18.8,30.08,SSE,153,0.0,0.0,87,0.00,,CLR,0.00,VWS V14.00,2013-03-14 13:32:00,
2013-03-14 08:37:00,22.5,19.2,30.07,SSE,153,0.0,0.0,87,0.00,,CLR,0.00,VWS V14.00,2013-03-14 13:37:00,
2013-03-14 08:42:00,22.9,19.6,30.08,SSE,153,0.0,0.0,87,0.00,,CLR,0.00,VWS V14.00,2013-03-14 13:42:00,
2013-03-14 08:47:00,23.2,19.6,30.07,SSE,153,0.0,0.0,86,0.00,,CLR,0.00,VWS V14.00,2013-03-14 13:47:00,
2013-03-14 08:52:00,23.4,19.8,30.08,SSE,153,0.0,0.0,86,0.00,,CLR,0.00,VWS V14.00,2013-03-14 13:52:00,
2013-03-14 08:57:00,23.6,20.0,30.08,SSE,153,0.0,1.0,86,0.00,,CLR,0.00,VWS V14.00,2013-03-14 13:57:00,
2013-03-14 09:02:00,23.8,20.0,30.08,SSE,153,0.0,0.0,85,0.00,,CLR,0.00,VWS V14.00,2013-03-14 14:02:00,
2013-03-14 09:07:00,24.0,20.1,30.08,SSE,154,0.0,1.0,85,0.00,,CLR,0.00,VWS V14.00,2013-03-14 14:07:00,
2013-03-14 09:12:00,24.3,20.2,30.09,SSE,154,0.0,1.0,84,0.00,,CLR,0.00,VWS V14.00,2013-03-14 14:12:00,
2013-03-14 09:17:00,24.6,20.5,30.09,SSE,154,0.0,1.0,84,0.00,,CLR,0.00,VWS V14.00,2013-03-14 14:17:00,
2013-03-14 09:22:00,24.9,20.8,30.10,SSE,154,0.0,5.0,84,0.00,,CLR,0.00,VWS V14.00,2013-03-14 14:22:00,
2013-03-14 09:27:00,25.2,20.8,30.11,SSE,156,0.0,5.0,83,0.00,,CLR,0.00,VWS V14.00,2013-03-14 14:27:00,
2013-03-14 09:32:00,25.7,21.3,30.11,SSE,156,0.0,1.0,83,0.00,,CLR,0.00,VWS V14.00,2013-03-14 14:32:00,
2013-03-14 09:37:00,26.3,21.9,30.11,SSE,161,0.0,1.0,83,0.00,,CLR,0.00,VWS V14.00,2013-03-14 14:37:00,
2013-03-14 09:43:00,26.6,21.9,30.11,South,183,0.0,3.0,82,0.00,,CLR,0.00,VWS V14.00,2013-03-14 14:43:00,
2013-03-14 09:48:00,27.0,22.0,30.11,South,181,0.0,3.0,81,0.00,,CLR,0.00,VWS V14.00,2013-03-14 14:48:00,
2013-03-14 09:53:00,27.5,22.5,30.11,SSE,163,0.0,8.0,81,0.00,,CLR,0.00,VWS V14.00,2013-03-14 14:53:00,
2013-03-14 09:58:00,27.7,22.4,30.10,SSE,168,0.0,8.0,80,0.00,,CLR,0.00,VWS V14.00,2013-03-14 14:58:00,
2013-03-14 10:03:00,28.2,22.8,30.10,SSE,168,0.0,1.0,80,0.00,,CLR,0.00,VWS V14.00,2013-03-14 15:03:00,
2013-03-14 10:07:00,28.5,22.5,30.09,SSE,167,0.0,5.0,78,0.00,,CLR,0.00,VWS V14.00,2013-03-14 15:07:00,
2013-03-14 10:13:00,28.5,22.5,30.09,SSE,166,0.0,3.0,78,0.00,,CLR,0.00,VWS V14.00,2013-03-14 15:13:00,
2013-03-14 10:18:00,28.4,22.4,30.09,SSE,168,0.0,5.0,78,0.00,,CLR,0.00,VWS V14.00,2013-03-14 15:18:00,
2013-03-14 10:22:00,28.3,22.0,30.09,SSE,165,0.0,6.0,77,0.00,,CLR,0.00,VWS V14.00,2013-03-14 15:22:00,
2013-03-14 10:28:00,28.4,22.4,30.10,SSE,156,0.0,7.0,78,0.00,,CLR,0.00,VWS V14.00,2013-03-14 15:28:00,
2013-03-14 10:33:00,28.8,22.5,30.09,SSE,158,0.0,1.0,77,0.00,,CLR,0.00,VWS V14.00,2013-03-14 15:33:00,
2013-03-14 10:38:00,28.7,22.4,30.09,SSE,162,0.0,8.0,77,0.00,,CLR,0.00,VWS V14.00,2013-03-14 15:38:00,
2013-03-14 10:43:00,28.6,22.3,30.09,SSE,166,0.0,4.0,77,0.00,,CLR,0.00,VWS V14.00,2013-03-14 15:43:00,
2013-03-14 10:48:00,29.0,22.7,30.09,SSE,167,0.0,5.0,77,0.00,,CLR,0.00,VWS V14.00,2013-03-14 15:48:00,
2013-03-14 10:53:00,29.2,22.3,30.10,SSE,168,1.0,7.0,75,0.00,,CLR,0.00,VWS V14.00,2013-03-14 15:53:00,
2013-03-14 10:58:00,28.9,22.3,30.09,South,172,0.0,9.0,76,0.00,,CLR,0.00,VWS V14.00,2013-03-14 15:58:00,
2013-03-14 11:03:00,28.5,21.9,30.09,South,179,0.0,8.0,76,0.00,,CLR,0.00,VWS V14.00,2013-03-14 16:03:00,
2013-03-14 11:08:00,28.4,21.8,30.09,South,175,4.0,10.0,76,0.00,,CLR,0.00,VWS V14.00,2013-03-14 16:08:00,
2013-03-14 11:13:00,28.3,21.7,30.09,South,175,9.0,12.0,76,0.00,,CLR,0.00,VWS V14.00,2013-03-14 16:13:00,
2013-03-14 11:18:00,28.6,22.3,30.09,South,175,7.0,12.0,77,0.00,,CLR,0.00,VWS V14.00,2013-03-14 16:18:00,
2013-03-14 11:23:00,28.8,22.2,30.09,South,173,0.0,8.0,76,0.00,,CLR,0.00,VWS V14.00,2013-03-14 16:23:00,
2013-03-14 11:28:00,29.2,22.6,30.09,South,184,1.0,11.0,76,0.00,,CLR,0.00,VWS V14.00,2013-03-14 16:28:00,
2013-03-14 11:33:00,29.3,22.4,30.09,SSE,162,0.0,9.0,75,0.00,,CLR,0.00,VWS V14.00,2013-03-14 16:33:00,
2013-03-14 11:38:00,29.3,22.4,30.08,SSE,160,4.0,10.0,75,0.00,,CLR,0.00,VWS V14.00,2013-03-14 16:38:00,
2013-03-14 11:43:00,28.9,22.0,30.09,South,189,2.0,9.0,75,0.00,,CLR,0.00,VWS V14.00,2013-03-14 16:43:00,
2013-03-14 11:48:00,29.1,22.5,30.10,South,175,0.0,9.0,76,0.00,,CLR,0.00,VWS V14.00,2013-03-14 16:48:00,
2013-03-14 11:53:00,29.6,22.7,30.10,South,182,1.0,6.0,75,0.00,,CLR,0.00,VWS V14.00,2013-03-14 16:53:00,
2013-03-14 11:58:00,30.2,23.2,30.10,South,185,0.0,6.0,75,0.00,,CLR,0.00,VWS V14.00,2013-03-14 16:58:00,
2013-03-14 12:03:00,30.6,23.3,30.10,South,187,0.0,1.0,74,0.00,,CLR,0.00,VWS V14.00,2013-03-14 17:03:00,
2013-03-14 12:08:00,30.8,23.5,30.10,South,176,0.0,4.0,74,0.00,,CLR,0.00,VWS V14.00,2013-03-14 17:08:00,
2013-03-14 12:13:00,31.3,23.7,30.11,SSW,200,0.0,1.0,73,0.00,,CLR,0.00,VWS V14.00,2013-03-14 17:13:00,
2013-03-14 12:18:00,31.6,24.0,30.11,WSW,241,0.0,7.0,73,0.00,,CLR,0.00,VWS V14.00,2013-03-14 17:18:00,
2013-03-14 12:23:00,32.1,24.4,30.11,SW,235,0.0,4.0,73,0.00,,CLR,0.00,VWS V14.00,2013-03-14 17:23:00,
2013-03-14 12:28:00,32.4,25.0,30.11,WSW,237,0.0,8.0,74,0.00,,CLR,0.00,VWS V14.00,2013-03-14 17:28:00,
2013-03-14 12:33:00,33.1,25.4,30.11,WSW,237,0.0,6.0,73,0.00,,CLR,0.00,VWS V14.00,2013-03-14 17:33:00,
2013-03-14 12:38:00,32.9,24.9,30.11,SW,229,0.0,6.0,72,0.00,,CLR,0.00,VWS V14.00,2013-03-14 17:38:00,
2013-03-14 12:43:00,33.1,25.1,30.11,SW,232,0.0,6.0,72,0.00,,CLR,0.00,VWS V14.00,2013-03-14 17:43:00,
2013-03-14 12:48:00,33.1,25.1,30.11,SW,229,0.0,6.0,72,0.00,,CLR,0.00,VWS V14.00,2013-03-14 17:48:00,
2013-03-14 12:53:00,33.3,25.6,30.11,SW,233,0.0,3.0,73,0.00,,CLR,0.00,VWS V14.00,2013-03-14 17:53:00,
2013-03-14 12:58:00,33.5,25.5,30.10,WSW,250,0.0,6.0,72,0.00,,CLR,0.00,VWS V14.00,2013-03-14 17:58:00,
2013-03-14 13:03:00,33.5,25.8,30.10,WSW,255,0.0,6.0,73,0.00,,CLR,0.00,VWS V14.00,2013-03-14 18:03:00,
2013-03-14 13:08:00,33.7,25.6,30.09,SSW,213,0.0,6.0,72,0.00,,CLR,0.00,VWS V14.00,2013-03-14 18:08:00,
2013-03-14 13:13:00,34.2,26.5,30.09,SSW,212,0.0,1.0,73,0.00,,CLR,0.00,VWS V14.00,2013-03-14 18:13:00,
2013-03-14 13:18:00,35.1,27.0,30.09,SSW,209,0.0,1.0,72,0.00,,CLR,0.00,VWS V14.00,2013-03-14 18:18:00,
2013-03-14 13:23:00,35.5,27.0,30.08,SSE,159,0.0,1.0,71,0.00,,CLR,0.00,VWS V14.00,2013-03-14 18:23:00,
2013-03-14 13:28:00,35.1,26.7,30.08,SE,141,0.0,9.0,71,0.00,,CLR,0.00,VWS V14.00,2013-03-14 18:28:00,
2013-03-14 13:34:00,35.1,26.3,30.09,SE,141,0.0,1.0,70,0.00,,CLR,0.00,VWS V14.00,2013-03-14 18:34:00,
2013-03-14 13:39:00,34.5,26.1,30.09,SE,142,0.0,1.0,71,0.00,,CLR,0.00,VWS V14.00,2013-03-14 18:39:00,
2013-03-14 13:44:00,34.1,26.0,30.09,SE,142,0.0,1.0,72,0.00,,CLR,0.00,VWS V14.00,2013-03-14 18:44:00,
2013-03-14 13:49:00,34.0,26.3,30.08,SE,142,0.0,1.0,73,0.00,,CLR,0.00,VWS V14.00,2013-03-14 18:49:00,
2013-03-14 13:54:00,33.8,26.1,30.08,SE,142,0.0,1.0,73,0.00,,CLR,0.00,VWS V14.00,2013-03-14 18:54:00,
2013-03-14 13:59:00,34.2,26.5,30.09,SE,142,0.0,6.0,73,0.00,,CLR,0.00,VWS V14.00,2013-03-14 18:59:00,
2013-03-14 14:04:00,34.5,27.1,30.09,SE,142,0.0,1.0,74,0.00,,CLR,0.00,VWS V14.00,2013-03-14 19:04:00,
2013-03-14 14:09:00,35.3,27.2,30.09,SE,142,0.0,1.0,72,0.00,,CLR,0.00,VWS V14.00,2013-03-14 19:09:00,
2013-03-14 14:14:00,35.7,27.6,30.09,SSE,151,0.0,1.0,72,0.00,,CLR,0.00,VWS V14.00,2013-03-14 19:14:00,
2013-03-14 14:19:00,36.3,27.8,30.09,SSE,151,0.0,1.0,71,0.00,,CLR,0.00,VWS V14.00,2013-03-14 19:19:00,
2013-03-14 14:24:00,36.6,27.8,30.09,SSE,151,0.0,0.0,70,0.00,,CLR,0.00,VWS V14.00,2013-03-14 19:24:00,
2013-03-14 14:29:00,36.6,27.8,30.09,SSE,151,0.0,0.0,70,0.00,,CLR,0.00,VWS V14.00,2013-03-14 19:29:00,
2013-03-14 14:34:00,36.8,27.6,30.09,SSE,151,0.0,0.0,69,0.00,,CLR,0.00,VWS V14.00,2013-03-14 19:34:00,
2013-03-14 14:39:00,36.9,27.7,30.09,SSE,151,0.0,0.0,69,0.00,,CLR,0.00,VWS V14.00,2013-03-14 19:39:00,
2013-03-14 14:44:00,37.1,27.9,30.09,SSE,156,0.0,0.0,69,0.00,,CLR,0.00,VWS V14.00,2013-03-14 19:44:00,
2013-03-14 14:49:00,36.9,27.7,30.09,WSW,238,0.0,6.0,69,0.00,,CLR,0.00,VWS V14.00,2013-03-14 19:49:00,
2013-03-14 14:54:00,36.8,28.0,30.09,WSW,237,0.0,0.0,70,0.00,,CLR,0.00,VWS V14.00,2013-03-14 19:54:00,
2013-03-14 14:59:00,37.0,27.8,30.09,SSW,208,0.0,1.0,69,0.00,,CLR,0.00,VWS V14.00,2013-03-14 19:59:00,
2013-03-14 15:04:00,37.0,28.1,30.09,SSW,207,0.0,1.0,70,0.00,,CLR,0.00,VWS V14.00,2013-03-14 20:04:00,
2013-03-14 15:09:00,37.2,28.3,30.09,SSW,209,0.0,1.0,70,0.00,,CLR,0.00,VWS V14.00,2013-03-14 20:09:00,
2013-03-14 15:14:00,37.5,28.6,30.09,WSW,240,0.0,1.0,70,0.00,,CLR,0.00,VWS V14.00,2013-03-14 20:14:00,
2013-03-14 15:19:00,37.5,28.6,30.09,WSW,256,0.0,5.0,70,0.00,,CLR,0.00,VWS V14.00,2013-03-14 20:19:00,
2013-03-14 15:24:00,37.4,28.2,30.08,WSW,240,0.0,1.0,69,0.00,,CLR,0.00,VWS V14.00,2013-03-14 20:24:00,
2013-03-14 15:29:00,37.5,28.6,30.08,West,261,0.0,1.0,70,0.00,,CLR,0.00,VWS V14.00,2013-03-14 20:29:00,
2013-03-14 15:34:00,37.8,28.6,30.08,West,262,0.0,1.0,69,0.00,,CLR,0.00,VWS V14.00,2013-03-14 20:34:00,
2013-03-14 15:39:00,38.0,28.8,30.08,West,262,0.0,1.0,69,0.00,,CLR,0.00,VWS V14.00,2013-03-14 20:39:00,
2013-03-14 15:44:00,38.6,29.3,30.08,West,261,0.0,0.0,69,0.00,,CLR,0.00,VWS V14.00,2013-03-14 20:44:00,
2013-03-14 15:49:00,38.9,28.9,30.07,WSW,255,0.0,0.0,67,0.00,,CLR,0.00,VWS V14.00,2013-03-14 20:49:00,
2013-03-14 15:54:00,38.6,29.0,30.07,West,266,0.0,1.0,68,0.00,,CLR,0.00,VWS V14.00,2013-03-14 20:54:00,
2013-03-14 15:59:00,38.5,28.9,30.07,West,266,0.0,1.0,68,0.00,,CLR,0.00,VWS V14.00,2013-03-14 20:59:00,
2013-03-14 16:04:00,39.0,29.4,30.07,West,266,0.0,0.0,68,0.00,,CLR,0.00,VWS V14.00,2013-03-14 21:04:00,
2013-03-14 16:09:00,39.2,29.5,30.07,SSE,153,0.0,0.0,68,0.00,,CLR,0.00,VWS V14.00,2013-03-14 21:09:00,
2013-03-14 16:14:00,38.2,28.6,30.07,SE,146,3.0,7.0,68,0.00,,CLR,0.00,VWS V14.00,2013-03-14 21:14:00,
2013-03-14 16:19:00,36.9,27.7,30.07,SE,144,0.0,7.0,69,0.00,,CLR,0.00,VWS V14.00,2013-03-14 21:19:00,
2013-03-14 16:24:00,35.9,27.4,30.07,SE,144,0.0,1.0,71,0.00,,CLR,0.00,VWS V14.00,2013-03-14 21:24:00,
2013-03-14 16:30:00,35.6,27.5,30.07,SE,145,0.0,1.0,72,0.00,,CLR,0.00,VWS V14.00,2013-03-14 21:30:00,
2013-03-14 16:34:00,35.2,27.4,30.06,SE,146,0.0,1.0,73,0.00,,CLR,0.00,VWS V14.00,2013-03-14 21:34:00,
2013-03-14 16:39:00,35.2,27.4,30.06,SSE,147,0.0,1.0,73,0.00,,CLR,0.00,VWS V14.00,2013-03-14 21:39:00,
2013-03-14 16:44:00,35.0,27.2,30.06,SSE,147,0.0,1.0,73,0.00,,CLR,0.00,VWS V14.00,2013-03-14 21:44:00,
2013-03-14 16:50:00,34.7,27.0,30.06,SSE,148,0.0,6.0,73,0.00,,CLR,0.00,VWS V14.00,2013-03-14 21:50:00,
2013-03-14 16:55:00,34.3,27.2,30.06,SSE,148,0.0,6.0,75,0.00,,CLR,0.00,VWS V14.00,2013-03-14 21:55:00,
2013-03-14 17:00:00,34.3,27.2,30.07,SSE,148,0.0,6.0,75,0.00,,CLR,0.00,VWS V14.00,2013-03-14 22:00:00,
2013-03-14 17:05:00,34.6,27.5,30.07,SSE,148,0.0,1.0,75,0.00,,CLR,0.00,VWS V14.00,2013-03-14 22:05:00,
2013-03-14 17:10:00,34.2,27.1,30.07,SSE,149,0.0,0.0,75,0.00,,CLR,0.00,VWS V14.00,2013-03-14 22:10:00,
2013-03-14 17:15:00,34.2,27.1,30.07,SSE,149,8.0,8.0,75,0.00,,CLR,0.00,VWS V14.00,2013-03-14 22:15:00,
2013-03-14 17:20:00,34.1,27.3,30.07,SE,146,2.0,6.0,76,0.00,,CLR,0.00,VWS V14.00,2013-03-14 22:20:00,
2013-03-14 17:25:00,33.9,27.1,30.07,SSE,147,4.0,7.0,76,0.00,,CLR,0.00,VWS V14.00,2013-03-14 22:25:00,
2013-03-14 17:30:00,33.9,27.1,30.07,SSE,162,4.0,4.0,76,0.00,,CLR,0.00,VWS V14.00,2013-03-14 22:30:00,
2013-03-14 17:35:00,33.9,27.1,30.06,SSE,162,0.0,6.0,76,0.00,,CLR,0.00,VWS V14.00,2013-03-14 22:35:00,
2013-03-14 17:40:00,33.9,27.1,30.06,SSE,166,0.0,0.0,76,0.00,,CLR,0.00,VWS V14.00,2013-03-14 22:40:00,
2013-03-14 17:45:00,33.8,27.0,30.06,SSE,166,1.0,7.0,76,0.00,,CLR,0.00,VWS V14.00,2013-03-14 22:45:00,
2013-03-14 17:50:00,33.7,27.0,30.06,SSE,167,1.0,1.0,76,0.00,,CLR,0.00,VWS V14.00,2013-03-14 22:50:00,
2013-03-14 17:55:00,33.7,27.0,30.06,SSE,167,0.0,1.0,76,0.00,,CLR,0.00,VWS V14.00,2013-03-14 22:55:00,
2013-03-14 18:00:00,34.1,27.7,30.05,SSE,167,0.0,0.0,77,0.00,,CLR,0.00,VWS V14.00,2013-03-14 23:00:00,
2013-03-14 18:05:00,34.3,27.5,30.06,SSE,167,0.0,1.0,76,0.00,,CLR,0.00,VWS V14.00,2013-03-14 23:05:00,
2013-03-14 18:10:00,34.5,27.7,30.05,SSE,167,0.0,0.0,76,0.00,,CLR,0.00,VWS V14.00,2013-03-14 23:10:00,
2013-03-14 18:15:00,34.9,28.1,30.06,SSE,167,0.0,0.0,76,0.00,,CLR,0.00,VWS V14.00,2013-03-14 23:15:00,
2013-03-14 18:20:00,35.1,28.0,30.06,SSE,167,0.0,0.0,75,0.00,,CLR,0.00,VWS V14.00,2013-03-14 23:20:00,
2013-03-14 18:25:00,35.3,27.9,30.05,SSE,167,0.0,0.0,74,0.00,,CLR,0.00,VWS V14.00,2013-03-14 23:25:00,
2013-03-14 18:30:00,35.2,27.8,30.06,SSE,167,0.0,0.0,74,0.00,,CLR,0.00,VWS V14.00,2013-03-14 23:30:00,
2013-03-14 18:35:00,35.1,27.7,30.06,SSE,167,0.0,0.0,74,0.00,,CLR,0.00,VWS V14.00,2013-03-14 23:35:00,
2013-03-14 18:40:00,34.5,27.4,30.06,SSE,167,0.0,0.0,75,0.00,,CLR,0.00,VWS V14.00,2013-03-14 23:40:00,
2013-03-14 18:45:00,34.1,27.0,30.06,SSE,167,0.0,0.0,75,0.00,,CLR,0.00,VWS V14.00,2013-03-14 23:45:00,
2013-03-14 18:50:00,34.0,27.2,30.06,South,174,0.0,0.0,76,0.00,,CLR,0.00,VWS V14.00,2013-03-14 23:50:00,
2013-03-14 18:55:00,33.8,26.7,30.07,SSW,198,0.0,0.0,75,0.00,,CLR,0.00,VWS V14.00,2013-03-14 23:55:00,
2013-03-14 19:00:00,33.5,26.4,30.07,SSW,209,0.0,0.0,75,0.00,,CLR,0.00,VWS V14.00,2013-03-15 00:00:00,
2013-03-14 19:05:00,33.2,26.5,30.08,NW,306,0.0,5.0,76,0.00,,CLR,0.00,VWS V14.00,2013-03-15 00:05:00,
2013-03-14 19:10:00,32.9,26.2,30.08,NW,307,0.0,0.0,76,0.00,,CLR,0.00,VWS V14.00,2013-03-15 00:10:00,
2013-03-14 19:15:00,32.7,26.3,30.08,NW,312,2.0,6.0,77,0.00,,CLR,0.00,VWS V14.00,2013-03-15 00:15:00,
2013-03-14 19:20:00,32.3,25.9,30.08,NW,313,5.0,5.0,77,0.00,,CLR,0.00,VWS V14.00,2013-03-15 00:20:00,
2013-03-14 19:25:00,32.0,25.9,30.08,NW,311,5.0,7.0,78,0.00,,CLR,0.00,VWS V14.00,2013-03-15 00:25:00,
2013-03-14 19:30:00,31.7,25.6,30.08,NW,311,0.0,5.0,78,0.00,,CLR,0.00,VWS V14.00,2013-03-15 00:30:00,
2013-03-14 19:35:00,31.4,25.6,30.09,NW,312,0.0,6.0,79,0.00,,CLR,0.00,VWS V14.00,2013-03-15 00:35:00,
2013-03-14 19:40:00,31.1,25.4,30.09,NW,323,0.0,0.0,79,0.00,,CLR,0.00,VWS V14.00,2013-03-15 00:40:00,
2013-03-14 19:45:00,30.8,25.4,30.09,NNW,334,0.0,1.0,80,0.00,,CLR,0.00,VWS V14.00,2013-03-15 00:45:00,
2013-03-14 19:50:00,30.6,25.2,30.09,NW,325,0.0,0.0,80,0.00,,CLR,0.00,VWS V14.00,2013-03-15 00:50:00,
2013-03-14 19:55:00,30.4,25.0,30.09,NNW,329,0.0,12.0,80,0.00,,CLR,0.00,VWS V14.00,2013-03-15 00:55:00,
2013-03-14 20:00:00,30.1,24.7,30.09,NNW,336,4.0,8.0,80,0.00,,,0.00,VWS V14.00,2013-03-15 01:00:00,
2013-03-14 20:05:00,29.9,24.8,30.09,NNW,335,6.0,8.0,81,0.00,,,0.00,VWS V14.00,2013-03-15 01:05:00,
2013-03-14 20:10:00,29.7,24.3,30.09,NNW,331,7.0,9.0,80,0.00,,,0.00,VWS V14.00,2013-03-15 01:10:00,
2013-03-14 20:15:00,29.4,24.3,30.08,NNW,343,4.0,10.0,81,0.00,,,0.00,VWS V14.00,2013-03-15 01:15:00,
2013-03-14 20:20:00,29.2,24.1,30.09,NNW,337,2.0,10.0,81,0.00,,,0.00,VWS V14.00,2013-03-15 01:20:00,
2013-03-14 20:25:00,28.9,23.8,30.09,NNW,341,1.0,11.0,81,0.00,,,0.00,VWS V14.00,2013-03-15 01:25:00,
2013-03-14 20:31:00,28.7,23.6,30.08,NNW,332,7.0,13.0,81,0.00,,,0.00,VWS V14.00,2013-03-15 01:31:00,
2013-03-14 20:36:00,28.5,23.4,30.08,North,0,1.0,13.0,81,0.00,,,0.00,VWS V14.00,2013-03-15 01:36:00,
2013-03-14 20:41:00,28.4,23.3,30.08,North,350,13.0,13.0,81,0.00,,,0.00,VWS V14.00,2013-03-15 01:41:00,
2013-03-14 20:46:00,28.1,23.0,30.09,North,358,10.0,14.0,81,0.00,,,0.00,VWS V14.00,2013-03-15 01:46:00,
2013-03-14 20:51:00,27.7,22.6,30.09,North,359,5.0,12.0,81,0.00,,,0.00,VWS V14.00,2013-03-15 01:51:00,
2013-03-14 20:56:00,27.1,22.1,30.09,North,0,10.0,14.0,81,0.00,,,0.00,VWS V14.00,2013-03-15 01:56:00,
2013-03-14 21:01:00,26.7,21.4,30.09,North,0,10.0,14.0,80,0.00,,CLR,0.00,VWS V14.00,2013-03-15 02:01:00,
2013-03-14 21:06:00,26.3,21.0,30.08,North,0,5.0,14.0,80,0.00,,CLR,0.00,VWS V14.00,2013-03-15 02:06:00,
2013-03-14 21:11:00,26.0,21.0,30.08,North,353,6.0,10.0,81,0.00,,CLR,0.00,VWS V14.00,2013-03-15 02:11:00,
2013-03-14 21:16:00,25.9,20.9,30.08,North,355,6.0,11.0,81,0.00,,CLR,0.00,VWS V14.00,2013-03-15 02:16:00,
2013-03-14 21:22:00,25.6,20.3,30.09,North,0,11.0,12.0,80,0.00,,CLR,0.00,VWS V14.00,2013-03-15 02:22:00,
2013-03-14 21:27:00,25.4,20.4,30.08,North,0,6.0,14.0,81,0.00,,CLR,0.00,VWS V14.00,2013-03-15 02:27:00,
2013-03-14 21:32:00,25.2,20.2,30.09,North,0,8.0,12.0,81,0.00,,CLR,0.00,VWS V14.00,2013-03-15 02:32:00,
2013-03-14 21:37:00,25.1,20.1,30.09,North,352,8.0,13.0,81,0.00,,CLR,0.00,VWS V14.00,2013-03-15 02:37:00,
2013-03-14 21:42:00,24.9,19.9,30.09,North,355,5.0,10.0,81,0.00,,CLR,0.00,VWS V14.00,2013-03-15 02:42:00,
2013-03-14 21:47:00,24.8,19.8,30.09,North,349,10.0,12.0,81,0.00,,CLR,0.00,VWS V14.00,2013-03-15 02:47:00,
2013-03-14 21:52:00,24.8,19.8,30.10,North,354,8.0,14.0,81,0.00,,CLR,0.00,VWS V14.00,2013-03-15 02:52:00,
2013-03-14 21:57:00,24.7,19.7,30.09,North,1,9.0,14.0,81,0.00,,CLR,0.00,VWS V14.00,2013-03-15 02:57:00,
2013-03-14 22:02:00,24.6,19.6,30.10,North,0,6.0,10.0,81,0.00,,CLR,0.00,VWS V14.00,2013-03-15 03:02:00,
2013-03-14 22:07:00,24.5,19.5,30.10,NNW,348,7.0,11.0,81,0.00,,BKN110,0.00,VWS V14.00,2013-03-15 03:07:00,
2013-03-14 22:12:00,24.5,19.5,30.10,NNW,332,8.0,13.0,81,0.00,,BKN110,0.00,VWS V14.00,2013-03-15 03:12:00,
2013-03-14 22:17:00,24.3,19.3,30.10,NNW,348,6.0,17.0,81,0.00,,BKN110,0.00,VWS V14.00,2013-03-15 03:17:00,
2013-03-14 22:22:00,24.1,18.8,30.10,North,0,13.0,14.0,80,0.00,,BKN110,0.00,VWS V14.00,2013-03-15 03:22:00,
2013-03-14 22:27:00,23.9,18.6,30.10,North,350,5.0,16.0,80,0.00,,BKN110,0.00,VWS V14.00,2013-03-15 03:27:00,
2013-03-14 22:32:00,23.7,18.1,30.10,North,357,8.0,14.0,79,0.00,,BKN110,0.00,VWS V14.00,2013-03-15 03:32:00,
2013-03-14 22:37:00,23.5,18.0,30.09,North,3,12.0,17.0,79,0.00,,BKN110,0.00,VWS V14.00,2013-03-15 03:37:00,
2013-03-14 22:42:00,23.4,18.1,30.09,North,5,13.0,15.0,80,0.00,,BKN110,0.00,VWS V14.00,2013-03-15 03:42:00,
2013-03-14 22:47:00,23.4,18.1,30.09,North,352,10.0,15.0,80,0.00,,BKN110,0.00,VWS V14.00,2013-03-15 03:47:00,
2013-03-14 22:52:00,23.3,18.1,30.10,North,350,0.0,12.0,80,0.00,,BKN110,0.00,VWS V14.00,2013-03-15 03:52:00,
2013-03-14 22:57:00,23.3,18.1,30.09,NNW,346,5.0,15.0,80,0.00,,BKN110,0.00,VWS V14.00,2013-03-15 03:57:00,
2013-03-14 23:00:00,23.2,18.0,30.09,North,358,9.0,15.0,80,0.00,,BKN110,0.00,VWS V14.00,2013-03-15 04:00:00,
2013-03-14 23:05:00,23.1,17.9,30.09,North,0,8.0,11.0,80,0.00,,OVC100,0.00,VWS V14.00,2013-03-15 04:05:00,
2013-03-14 23:10:00,23.1,18.1,30.09,North,0,9.0,15.0,81,0.00,,OVC100,0.00,VWS V14.00,2013-03-15 04:10:00,
2013-03-14 23:15:00,23.0,17.8,30.09,North,0,10.0,16.0,80,0.00,,OVC100,0.00,VWS V14.00,2013-03-15 04:15:00,
2013-03-14 23:20:00,23.0,18.0,30.10,NNW,344,0.0,6.0,81,0.00,,OVC100,0.00,VWS V14.00,2013-03-15 04:20:00,
2013-03-14 23:25:00,22.9,17.7,30.10,NNW,341,6.0,12.0,80,0.00,,OVC100,0.00,VWS V14.00,2013-03-15 04:25:00,
2013-03-14 23:30:00,22.8,17.9,30.10,NNW,336,5.0,10.0,81,0.00,,OVC100,0.00,VWS V14.00,2013-03-15 04:30:00,
2013-03-14 23:35:00,22.7,17.8,30.09,North,359,4.0,14.0,81,0.00,,OVC100,0.00,VWS V14.00,2013-03-15 04:35:00,
2013-03-14 23:40:00,22.6,17.7,30.08,North,4,11.0,13.0,81,0.00,,OVC100,0.00,VWS V14.00,2013-03-15 04:40:00,
2013-03-14 23:45:00,22.6,17.7,30.08,North,0,9.0,13.0,81,0.00,,OVC100,0.00,VWS V14.00,2013-03-15 04:45:00,
2013-03-14 23:50:00,22.5,17.6,30.08,North,358,9.0,13.0,81,0.00,,OVC100,0.00,VWS V14.00,2013-03-15 04:50:00,
2013-03-14 23:55:00,22.5,17.6,30.08,North,4,11.0,18.0,81,0.00,,OVC100,0.00,VWS V14.00,2013-03-15 04:55:00,